GW0092 Weather Reports


Display with metric or nautical units.
time (UTC)temp
F
wind
direction
speed
MPH
gust
MPH
rain 1hr
in
rain 24hr
in
rain mn
in
humidity
%
barometer
mb
20260903183102 85 343 1.0 3.0 0.00 0.00 0.00 86 1015.7
20260903181600 85 0 1.0 4.0 0.00 0.00 0.00 87 1016.0
20260903180107 84 123 0.0 1.0 0.00 0.00 0.00 89 1015.8
20260903174609 83 0 0.0 1.0 0.00 0.00 0.00 90 1016.1
20260903173101 84 0 0.0 3.0 0.00 0.00 0.00 87 1015.9
20260903171615 85 150 1.0 2.0 0.00 0.00 0.00 87 1016.2
20260903170107 85 0 0.0 4.0 0.00 0.00 0.00 86 1016.2
20260903164637 85 70 0.0 5.0 0.00 0.00 0.00 83 1016.5
20260903163103 85 0 1.0 3.0 0.00 0.00 0.00 88 1016.7
20260903161608 84 86 0.0 4.0 0.00 0.00 0.00 84 1016.8
20260903160105 83 77 1.0 4.0 0.00 0.00 0.00 86 1017.1
20260903154602 83 143 1.0 3.0 0.00 0.00 0.00 89 1017.3
20260903153126 82 93 0.0 5.0 0.00 0.00 0.00 90 1017.0
20260903151601 81 0 0.0 3.0 0.00 0.00 0.00 90 1016.8
20260903150101 81 131 2.0 5.0 0.00 0.00 0.00 91 1016.9
20260903144606 81 110 1.0 5.0 0.00 0.00 0.00 91 1017.0
20260903143105 80 127 1.0 4.0 0.00 0.00 0.00 95 1016.8
20260903141602 79 117 0.0 3.0 0.00 0.00 0.00 97 1017.0
20260903140105 78 248 0.0 2.0 0.00 0.00 0.00 99 1017.2
20260903134611 77 129 0.0 2.0 0.00 0.00 0.00 100 1017.5
20260903133103 76 319 0.0 1.0 0.00 0.00 0.00 100 1017.8
20260903131606 75 0 0.0 1.0 0.00 0.00 0.00 100 1017.8
20260903124610 74 0 0.0 1.0 0.00 0.00 0.00 100 1018.6
20260903123104 74 0 0.0 1.0 0.00 0.00 0.00 100 1018.6
20260903121615 73 0 0.0 0.0 0.00 0.00 0.00 100 1018.5
20260903120110 73 0 0.0 0.0 0.00 0.00 0.00 100 1018.6
20260903114601 73 0 0.0 0.0 0.00 0.00 0.00 100 1018.4
20260903113144 72 0 0.0 1.0 0.00 0.00 0.00 100 1018.2
20260903111602 72 0 0.0 1.0 0.00 0.00 0.00 100 1018.0
20260903110105 72 0 0.0 1.0 0.00 0.00 0.00 100 1017.7
20260903104611 71 0 0.0 1.0 0.00 0.00 0.00 100 1017.7
20260903103106 71 0 0.0 1.0 0.00 0.00 0.00 100 1017.5
20260903101603 72 0 0.0 0.0 0.00 0.00 0.00 100 1017.2
20260903094601 72 0 0.0 1.0 0.00 0.00 0.00 100 1017.2
20260903093106 72 0 0.0 0.0 0.00 0.00 0.00 100 1017.3
20260903091602 73 0 0.0 1.0 0.00 0.00 0.00 100 1017.3
20260903090058 73 285 0.0 1.0 0.00 0.00 0.00 100 1017.7
20260903084609 73 335 1.0 3.0 0.00 0.00 0.00 100 1017.9
20260903083105 71 295 0.0 2.0 0.00 0.00 0.00 100 1017.8
20260903081601 71 0 0.0 0.0 0.00 0.00 0.00 100 1017.0
20260903074603 71 0 0.0 0.0 0.00 0.03 0.00 100 1016.7
20260903073106 71 0 0.0 0.0 0.00 0.03 0.00 100 1016.6
20260903071613 72 0 0.0 0.0 0.00 0.03 0.00 100 1016.7
20260903064603 72 0 0.0 0.0 0.00 0.08 0.00 100 1016.4
20260903063103 72 0 0.0 0.0 0.00 0.08 0.00 100 1016.6
20260903061606 72 0 0.0 0.0 0.00 0.08 0.00 100 1016.8
20260903060101 72 0 0.0 0.0 0.00 0.08 0.00 100 1017.2
20260903054605 72 0 0.0 0.0 0.00 0.37 0.00 100 1017.2
20260903053102 72 0 0.0 0.0 0.00 0.37 0.00 100 1017.3
20260903051617 72 0 0.0 1.0 0.00 0.37 0.00 99 1017.7
20260903050115 72 0 0.0 0.0 0.00 0.37 0.00 100 1017.7
20260903044602 72 0 0.0 0.0 0.00 0.37 0.00 99 1018.0
20260903043208 72 0 0.0 0.0 0.00 0.37 0.00 100 1017.9
20260903041555 73 0 0.0 0.0 0.00 0.37 0.00 99 1017.7
20260903040106 73 0 0.0 0.0 0.00 0.37 0.00 100 1017.5
20260903034559 72 0 0.0 0.0 0.00 0.37 0.37 100 1017.6
20260903033057 72 0 0.0 0.0 0.00 0.37 0.37 99 1017.6
20260903031604 73 0 0.0 0.0 0.00 0.37 0.37 100 1017.7
20260903030103 72 0 0.0 0.0 0.00 0.37 0.37 99 1018.0
20260903024605 72 0 0.0 0.0 0.00 0.37 0.37 99 1017.8
20260903023132 73 0 0.0 0.0 0.00 0.37 0.37 99 1017.4
20260903021604 73 0 0.0 0.0 0.00 0.37 0.37 99 1017.6
20260903020053 73 0 0.0 0.0 0.00 0.37 0.37 99 1017.5
20260903014604 73 0 0.0 0.0 0.00 0.37 0.37 99 1017.7
20260903013109 74 0 0.0 0.0 0.00 0.37 0.37 99 1018.1
20260903011552 74 0 0.0 0.0 0.00 0.37 0.37 99 1017.9
20260903010106 74 0 0.0 0.0 0.00 0.37 0.37 98 1017.9
20260903004606 74 0 0.0 0.0 0.00 0.37 0.37 98 1017.5
20260903003100 75 0 0.0 0.0 0.00 0.37 0.37 98 1017.5
20260903001555 75 0 0.0 0.0 0.00 0.37 0.37 98 1017.5
20260902234616 75 0 0.0 0.0 0.00 0.37 0.37 97 1017.6
20260902233059 76 0 0.0 0.0 0.00 0.37 0.37 96 1017.2
20260902231626 76 0 0.0 1.0 0.00 0.37 0.37 95 1017.3
20260902230107 77 0 0.0 1.0 0.00 0.37 0.37 95 1017.4
20260902224612 77 0 0.0 0.0 0.00 0.37 0.37 95 1017.7
20260902223107 77 0 0.0 0.0 0.00 0.37 0.37 94 1017.7
20260902221608 77 326 0.0 1.0 0.00 0.37 0.37 94 1017.8
20260902220107 78 0 0.0 1.0 0.00 0.37 0.37 93 1017.6
20260902214604 78 0 0.0 0.0 0.00 0.37 0.37 94 1017.5
20260902213118 78 0 0.0 1.0 0.00 0.37 0.37 94 1017.4
20260902211557 77 308 0.0 2.0 0.00 0.37 0.37 95 1017.6
20260902210106 77 321 0.0 4.0 0.00 0.37 0.37 95 1017.5
20260902204602 76 228 0.0 5.0 0.00 0.37 0.37 96 1016.5
20260902203107 76 104 2.0 4.0 0.00 0.37 0.37 96 1015.7
20260902201608 76 143 0.0 3.0 0.00 0.37 0.37 96 1017.5
20260902200135 77 334 0.0 1.0 0.00 0.37 0.37 94 1019.1
20260902194601 77 335 0.0 3.0 0.00 0.37 0.37 93 1020.0
20260902193108 78 319 0.0 3.0 0.00 0.37 0.37 92 1019.6
20260902191614 78 0 0.0 5.0 0.00 0.37 0.37 92 1019.1
20260902190115 79 356 0.0 5.0 0.00 0.37 0.37 91 1019.7
20260902184602 79 307 1.0 6.0 0.00 0.37 0.37 89 1019.3